TimeAKDT,TemperatureF,Dew PointF,Humidity,Sea Level PressureIn,VisibilityMPH,Wind Direction,Wind SpeedMPH,Gust SpeedMPH,PrecipitationIn,Events,Conditions,WindDirDegrees,DateUTC
12:53 AM,26.1,19.9,78,29.57,10.0,East,6.9,-,N/A,,Overcast,90,2013-10-11 08:53:00
1:44 AM,21.2,17.6,86,29.57,10.0,ENE,6.9,-,N/A,,Scattered Clouds,60,2013-10-11 09:44:00
1:53 AM,21.9,17.1,82,29.57,10.0,ENE,8.1,-,N/A,,Partly Cloudy,70,2013-10-11 09:53:00
2:53 AM,21.0,16.0,81,29.58,10.0,ENE,6.9,-,N/A,,Clear,70,2013-10-11 10:53:00
3:53 AM,21.0,16.0,81,29.58,10.0,ENE,8.1,-,N/A,,Clear,70,2013-10-11 11:53:00
4:53 AM,21.9,17.1,82,29.58,10.0,ENE,6.9,-,N/A,,Mostly Cloudy,70,2013-10-11 12:53:00
5:53 AM,23.0,19.0,85,29.58,10.0,ENE,8.1,-,N/A,,Overcast,70,2013-10-11 13:53:00
6:53 AM,24.1,21.0,88,29.58,2.5,ENE,10.4,-,0.00,Snow,Light Snow,70,2013-10-11 14:53:00
7:03 AM,24.8,21.2,86,29.58,2.0,ENE,11.5,-,0.00,Snow,Light Snow,70,2013-10-11 15:03:00
7:27 AM,24.8,21.2,86,29.58,5.0,ENE,12.7,-,0.00,Snow,Light Snow,70,2013-10-11 15:27:00
7:53 AM,24.1,19.9,84,29.58,9.0,ENE,12.7,-,0.00,,Overcast,60,2013-10-11 15:53:00
8:53 AM,24.1,19.9,84,29.58,10.0,ENE,15.0,-,N/A,,Overcast,60,2013-10-11 16:53:00
9:02 AM,24.8,19.4,80,29.58,10.0,ENE,13.8,-,N/A,,Overcast,60,2013-10-11 17:02:00
9:16 AM,24.8,21.2,86,29.57,10.0,ENE,15.0,-,N/A,,Overcast,60,2013-10-11 17:16:00
9:53 AM,26.1,21.9,84,29.58,10.0,ENE,15.0,-,N/A,,Overcast,70,2013-10-11 17:53:00
10:29 AM,26.6,21.2,80,29.58,10.0,ENE,13.8,-,N/A,,Overcast,60,2013-10-11 18:29:00
10:53 AM,27.0,23.0,85,29.58,10.0,ENE,19.6,-,N/A,,Overcast,60,2013-10-11 18:53:00
11:10 AM,26.6,23.0,86,29.58,10.0,ENE,17.3,-,N/A,,Overcast,70,2013-10-11 19:10:00
11:42 AM,28.4,24.8,86,29.57,10.0,ENE,18.4,-,N/A,,Overcast,70,2013-10-11 19:42:00
11:53 AM,28.0,24.1,85,29.57,10.0,ENE,19.6,-,N/A,,Overcast,70,2013-10-11 19:53:00
12:08 PM,28.4,24.8,86,29.57,10.0,ENE,17.3,-,N/A,,Overcast,70,2013-10-11 20:08:00
12:53 PM,27.0,23.0,85,29.58,10.0,ENE,18.4,-,N/A,,Overcast,70,2013-10-11 20:53:00
1:01 PM,26.6,23.0,86,29.58,10.0,ENE,17.3,-,N/A,,Overcast,70,2013-10-11 21:01:00
1:24 PM,26.6,23.0,86,29.58,10.0,ENE,19.6,-,N/A,,Overcast,70,2013-10-11 21:24:00
1:53 PM,27.0,23.0,85,29.58,6.0,ENE,19.6,25.3,0.00,Snow,Light Snow,70,2013-10-11 21:53:00
2:53 PM,27.0,23.0,85,29.58,10.0,ENE,16.1,-,0.00,,Overcast,70,2013-10-11 22:53:00
3:46 PM,28.4,23.0,80,29.57,10.0,ENE,16.1,-,N/A,,Overcast,70,2013-10-11 23:46:00
3:53 PM,28.0,24.1,85,29.57,10.0,ENE,16.1,-,N/A,,Overcast,70,2013-10-11 23:53:00
4:53 PM,27.0,23.0,85,29.57,10.0,East,13.8,-,N/A,,Mostly Cloudy,80,2013-10-12 00:53:00
5:53 PM,28.0,23.0,81,29.57,10.0,East,11.5,-,N/A,,Overcast,80,2013-10-12 01:53:00
6:53 PM,28.0,24.1,85,29.57,10.0,East,12.7,-,N/A,,Overcast,80,2013-10-12 02:53:00
7:53 PM,28.0,24.1,85,29.57,10.0,East,9.2,-,N/A,,Overcast,80,2013-10-12 03:53:00
8:32 PM,28.4,24.8,86,29.57,1.8,East,8.1,-,0.00,Snow,Light Snow,90,2013-10-12 04:32:00
8:36 PM,28.4,24.8,86,29.57,2.0,East,8.1,-,0.00,Snow,Light Snow,90,2013-10-12 04:36:00
8:46 PM,28.4,24.8,86,29.56,4.0,East,8.1,-,0.00,Snow,Light Snow,90,2013-10-12 04:46:00
8:51 PM,28.4,24.8,86,29.56,5.0,East,8.1,-,0.00,Snow,Light Snow,90,2013-10-12 04:51:00
8:53 PM,28.9,26.1,89,29.57,6.0,East,8.1,-,0.00,Snow,Light Snow,90,2013-10-12 04:53:00
9:43 PM,30.2,26.6,86,29.57,2.5,East,6.9,-,0.00,Snow,Light Snow,100,2013-10-12 05:43:00
9:53 PM,30.0,27.0,88,29.57,3.0,East,4.6,-,0.00,Snow,Light Snow,100,2013-10-12 05:53:00
10:53 PM,32.0,30.0,92,29.58,5.0,SE,5.8,-,0.00,Snow,Light Snow,130,2013-10-12 06:53:00
11:09 PM,32.0,30.2,93,29.57,6.0,SE,4.6,-,0.00,Snow,Light Snow,130,2013-10-12 07:09:00
11:50 PM,32.0,30.2,93,29.58,8.0,SE,6.9,-,0.00,Snow,Light Snow,140,2013-10-12 07:50:00
11:53 PM,32.0,30.0,92,29.58,8.0,SE,5.8,-,0.00,Snow,Light Snow,140,2013-10-12 07:53:00